GFSNE_850_spd_273.txt.gz
Wind_Speed
58 58 56 54 53 57 56 54 47 39 46 45 42 37 34 32 31 31 33 30 29 29 31 33 33 32 31 33 34 32 25 26 25 17 20 13 13 13
61 61 61 59 57 56 56 58 56 52 46 45 43 40 36 35 34 34 35 33 33 32 31 33 36 35 34 34 36 37 31 31 25 23 24 12 13 13
62 64 64 62 61 59 58 57 59 58 57 51 47 45 40 38 37 36 36 37 35 36 35 37 38 40 37 38 38 38 37 30 22 24 23 14 15 13
63 64 66 64 64 63 62 61 60 59 59 61 50 50 49 46 44 41 40 39 37 37 40 40 42 42 41 42 41 41 33 33 25 24 23 18 16 13
64 66 63 64 65 64 65 65 63 61 59 59 55 55 53 50 49 45 45 42 41 37 39 43 42 42 44 45 43 40 36 29 27 25 24 22 20 16
61 65 66 64 65 65 65 65 65 61 59 58 57 58 58 55 51 48 47 46 42 39 40 43 42 42 45 44 45 42 39 30 28 26 26 24 22 19
63 62 65 65 64 64 63 63 64 63 61 59 58 57 57 57 58 55 50 45 42 42 41 41 45 44 45 44 46 44 41 30 29 28 28 27 26 24
69 64 65 66 63 61 62 60 60 59 60 60 61 61 61 59 57 56 52 48 44 48 43 44 44 45 45 45 43 42 40 29 29 29 32 31 30 28
68 66 62 63 60 58 57 57 57 58 58 55 56 58 55 54 51 50 51 49 49 49 42 44 47 46 47 48 46 45 43 34 32 32 35 34 34 32
67 65 61 60 57 53 53 55 58 59 58 57 58 56 52 47 43 38 37 39 44 45 44 45 44 45 47 50 50 47 45 39 36 36 39 38 37 36
45 39 64 62 53 52 47 51 55 52 51 54 55 55 55 53 47 44 46 44 45 46 44 47 47 45 48 50 49 48 47 42 40 40 43 42 39 39
53 55 49 56 56 55 48 47 54 53 48 46 48 55 57 59 59 52 50 52 53 49 49 46 48 45 45 50 48 49 47 44 44 43 46 46 43 43
33 42 55 50 55 51 49 47 49 45 41 36 38 37 40 50 59 61 58 56 58 54 52 48 48 47 49 41 38 39 45 47 49 48 49 50 48 48
32 35 25 47 36 44 51 45 43 39 42 41 41 40 38 42 45 49 50 51 55 54 48 47 48 45 48 49 48 44 43 47 50 53 52 55 52 49
21 36 40 42 43 40 35 33 33 31 35 39 47 49 45 43 43 43 47 53 52 56 51 49 48 46 45 48 46 46 44 46 49 54 56 58 58 57
14 14 28 36 47 51 42 38 51 45 36 43 42 56 53 47 42 39 40 45 44 51 49 44 49 47 47 46 44 44 45 46 41 49 57 60 60 59
17 12 21 28 24 30 40 37 34 35 45 54 40 37 37 51 39 35 38 40 47 45 47 47 48 47 44 45 46 46 46 46 46 44 52 60 63 61
15 15 11 11 13 22 31 41 41 42 42 47 50 46 40 33 32 32 36 34 39 43 45 47 49 46 43 46 47 47 47 45 46 45 44 51 59 58
14 13 12 11 11 12 16 24 33 33 33 35 39 42 41 40 39 36 37 43 43 43 47 46 45 44 47 52 45 47 49 45 44 41 43 43 48 54
14 13 12 12 12 12 14 14 16 21 22 24 27 30 33 38 40 42 45 45 45 46 46 46 47 46 47 49 41 43 42 44 44 42 38 38 42 44
15 14 14 13 13 12 13 14 16 16 17 22 23 24 27 29 32 36 39 41 41 42 44 47 47 42 39 40 38 39 34 35 36 36 38 41 43 43
21 20 19 17 16 15 16 16 14 15 16 17 21 23 26 27 29 30 31 34 36 36 38 38 39 36 35 37 38 41 37 30 30 29 34 40 38 37
25 25 23 21 20 18 18 18 18 16 15 16 17 18 20 23 24 27 29 29 29 29 31 34 34 33 32 33 36 35 33 32 35 31 30 31 35 32

GFSNE_850_spd_279.txt.gz
Wind_Speed
51 51 52 52 50 51 52 46 39 36 38 33 35 40 38 37 36 33 31 28 26 28 30 31 31 30 31 30 28 27 28 29 31 30 29 25 16 17
45 48 51 53 54 54 53 54 48 47 44 42 38 38 37 37 35 33 32 30 29 29 29 31 32 33 34 35 32 28 30 30 33 32 30 27 18 17
41 44 47 50 54 55 56 56 55 49 45 59 43 38 42 44 43 41 39 38 36 32 29 30 31 33 35 38 35 33 32 33 34 34 31 29 19 19
41 42 44 44 49 53 54 56 56 55 51 56 48 43 50 50 48 48 47 45 44 41 36 35 34 35 37 38 36 35 35 35 36 34 33 31 24 21
41 42 42 45 48 50 49 53 55 55 49 56 58 42 47 51 50 51 51 49 48 46 42 41 38 38 40 40 40 37 38 38 38 37 34 33 28 24
42 41 43 46 47 45 46 47 48 50 49 50 56 45 47 53 51 53 54 53 53 50 46 44 41 41 43 43 44 41 39 39 41 41 39 37 32 28
39 44 41 41 47 48 48 42 41 49 49 45 51 47 45 56 57 55 55 54 53 52 49 47 45 43 44 45 47 46 42 42 42 42 41 40 37 32
37 43 44 45 42 47 41 54 53 53 48 48 51 50 52 59 58 59 56 54 52 55 53 53 47 48 46 48 48 45 42 42 41 40 40 41 42 36
35 36 43 50 54 52 52 45 47 56 61 58 55 53 56 56 59 60 58 55 54 50 45 47 46 47 46 48 46 44 42 40 40 40 41 43 46 40
29 33 39 40 46 48 49 55 49 56 57 56 61 61 67 63 56 65 60 48 45 46 47 48 48 47 44 44 41 41 37 37 38 39 42 46 48 44
31 32 28 36 29 36 44 43 44 51 51 52 57 50 56 54 64 62 59 54 49 49 48 48 49 48 44 42 41 38 36 38 40 40 41 45 48 47
27 22 29 35 35 32 39 41 50 53 45 56 50 39 42 47 64 67 62 60 57 53 50 51 51 46 43 43 39 38 39 41 41 40 41 44 48 49
27 27 26 26 30 39 39 42 46 35 34 50 56 60 58 58 48 58 74 74 59 63 56 51 53 50 46 39 33 32 35 38 40 39 41 43 45 47
27 27 28 27 28 32 38 35 37 36 34 43 46 57 58 52 45 48 52 65 67 66 64 62 59 50 47 47 44 45 39 36 35 37 39 37 39 42
24 27 26 26 27 27 30 32 44 35 34 42 46 44 50 54 52 55 52 51 59 64 65 62 60 52 50 47 44 42 39 37 37 38 39 39 37 41
23 24 26 25 23 22 21 20 22 33 37 36 33 32 27 26 27 28 37 48 44 52 61 63 58 52 48 45 39 38 38 37 36 34 34 35 36 38
28 26 24 26 26 22 20 18 14 15 21 27 35 37 38 36 42 43 30 27 30 28 53 50 50 47 46 46 44 41 42 40 41 37 35 36 36 38
26 25 24 21 21 22 22 20 18 18 16 17 21 30 36 39 45 43 39 42 36 37 35 35 43 42 40 41 41 43 37 39 43 43 41 38 40 41
24 24 24 24 23 20 20 20 21 17 17 17 18 19 23 31 35 40 46 46 47 46 47 41 41 40 35 50 47 48 47 45 41 42 43 41 41 42
25 25 25 25 24 24 23 20 20 17 15 16 17 17 17 18 24 32 36 40 43 39 41 42 43 43 43 51 44 45 34 35 38 37 37 36 38 37
26 26 27 27 26 25 25 23 21 20 17 16 17 15 15 16 16 20 22 26 33 33 34 37 38 39 40 42 39 39 31 31 24 24 27 28 31 33
28 28 28 27 27 26 26 27 25 22 20 18 17 16 14 12 13 13 15 17 22 24 27 28 27 28 29 30 33 35 33 29 25 22 23 24 25 22
29 30 29 27 27 28 27 28 27 26 24 21 19 17 18 14 10 12 12 12 13 16 19 20 20 21 22 25 23 28 28 24 26 30 27 26 24 21

GFSNE_850_spd_282.txt.gz
Wind_Speed
38 38 39 45 42 40 39 37 35 32 34 31 27 25 28 28 31 32 33 33 29 27 28 29 31 32 32 32 31 28 29 26 26 26 26 26 25 19
35 34 35 37 39 40 43 41 39 41 39 38 34 30 30 35 35 34 33 31 30 29 30 32 32 33 34 35 36 33 33 31 30 29 29 28 27 23
38 43 37 34 38 40 40 41 41 40 40 47 35 33 32 40 36 38 39 37 37 35 32 31 30 30 33 35 37 38 36 36 36 32 32 31 28 27
38 41 44 52 44 42 39 38 39 41 41 45 39 34 35 37 41 40 45 44 44 43 40 38 36 37 37 37 38 39 39 37 40 37 35 34 31 30
39 42 36 42 54 47 40 38 38 38 39 41 43 36 36 35 38 44 47 49 48 47 46 43 40 40 39 40 41 42 42 40 39 40 41 39 34 34
28 30 44 34 43 37 41 37 37 37 36 39 39 37 34 37 35 38 43 50 52 49 48 46 44 43 43 43 43 44 46 45 43 42 42 43 39 38
36 34 27 37 41 43 44 39 40 37 33 37 35 40 41 38 40 46 46 50 51 51 52 52 50 46 48 47 47 47 47 49 47 46 46 44 42 41
33 31 39 38 26 43 44 42 46 38 41 37 39 44 44 45 46 50 51 45 50 51 46 50 55 52 48 50 50 48 49 50 48 48 48 46 45 44
23 28 33 34 41 41 34 40 47 47 47 45 48 49 45 52 51 52 52 52 53 50 41 46 46 48 43 47 51 51 51 52 50 49 49 46 44 44
22 20 21 27 29 37 35 38 42 46 52 53 50 56 43 44 54 58 52 56 53 55 54 50 48 49 47 47 49 49 48 51 51 51 49 46 45 44
23 21 21 19 19 28 36 39 43 44 42 48 52 60 64 58 56 55 52 54 53 56 54 55 53 52 51 50 51 50 49 49 48 48 47 46 45 43
27 24 21 21 21 21 27 34 40 42 41 42 38 50 52 51 52 58 65 58 57 55 57 52 52 50 50 48 51 51 49 48 48 46 45 45 45 45
28 28 28 24 23 23 24 28 31 38 44 46 46 43 39 47 56 56 60 66 65 61 58 46 50 50 46 44 54 50 39 45 48 46 46 45 46 45
27 29 31 29 26 23 23 28 32 31 32 42 49 51 52 50 52 53 53 53 64 64 62 56 57 52 52 48 54 62 60 55 49 47 50 46 46 46
27 26 26 28 26 26 24 25 28 29 28 29 37 43 36 41 48 47 52 52 51 61 55 59 58 50 60 61 60 56 61 60 55 49 44 44 44 45
31 29 27 25 24 25 24 25 24 25 25 25 29 35 43 38 38 42 47 45 53 52 51 51 53 60 59 58 56 64 63 63 50 44 42 45 41 44
32 30 28 26 25 23 23 22 24 24 25 24 23 26 29 36 41 34 31 38 51 47 43 48 49 54 51 57 58 58 60 58 52 48 40 39 38 40
29 28 29 27 25 25 24 23 22 20 26 26 24 22 23 25 28 36 35 36 40 46 46 43 40 44 47 50 56 56 54 49 49 43 48 40 40 40
24 25 27 26 26 26 24 23 24 21 21 25 25 24 23 23 20 22 27 32 38 43 44 52 47 43 48 49 41 48 46 45 49 53 54 47 44 43
23 25 26 27 27 26 25 25 26 24 22 22 23 25 23 23 24 23 20 23 27 32 40 37 41 44 48 46 40 41 36 37 46 51 49 45 47 47
24 23 26 27 27 28 26 26 24 27 26 24 23 24 22 21 23 23 23 21 22 26 31 36 39 36 35 41 38 38 34 29 32 34 38 40 41 40
27 27 28 27 27 28 28 28 28 28 27 26 25 25 23 23 23 23 24 24 23 21 24 25 26 26 31 33 35 37 35 29 27 24 25 26 25 22
30 29 30 29 28 28 28 29 29 30 27 26 26 24 24 23 22 22 21 22 24 22 19 21 21 22 24 24 25 29 30 27 28 29 27 25 23 22

GFSNE_850_spd_288.txt.gz
Wind_Speed
26 42 49 41 45 40 36 36 30 34 34 31 32 37 31 33 31 28 33 35 35 35 34 31 28 28 31 32 33 32 32 31 31 29 27 25 24 22
17 32 35 43 46 27 30 36 38 32 36 35 36 33 34 36 38 38 38 35 31 30 30 31 30 31 33 33 34 35 34 33 33 34 34 31 29 27
19 21 19 34 35 44 37 32 33 34 41 39 36 35 37 34 32 34 38 38 37 34 34 34 32 31 31 31 33 36 37 37 36 36 36 36 35 32
19 18 16 26 21 22 30 35 36 38 39 41 43 37 34 34 41 45 42 40 42 39 36 38 37 36 34 34 36 36 37 37 38 37 37 37 39 39
19 20 20 19 20 30 27 40 46 37 35 47 50 44 39 35 34 30 34 46 48 41 42 48 45 40 37 34 36 37 39 41 42 43 42 42 42 44
19 18 17 17 20 23 24 22 33 39 34 30 44 47 45 36 41 52 51 36 28 35 38 40 41 38 39 37 39 40 41 42 44 46 47 47 45 46
23 20 20 18 15 19 22 25 25 27 30 36 40 45 39 44 46 39 32 54 45 40 37 39 43 42 44 48 45 43 43 43 45 46 48 50 50 49
24 25 23 21 21 23 23 19 22 26 28 26 29 35 45 41 35 30 23 28 36 38 39 36 41 48 48 47 45 44 42 44 44 45 49 50 51 51
21 24 25 23 21 27 25 23 22 21 21 28 30 34 31 34 40 42 38 29 33 32 35 44 45 48 46 47 45 45 42 38 38 40 41 43 49 52
22 22 23 23 25 27 29 28 26 25 23 22 23 29 35 34 25 35 41 41 42 43 46 50 52 53 48 52 50 51 50 46 43 42 42 43 43 44
28 25 22 21 26 30 32 32 31 29 27 27 26 25 27 34 35 37 41 39 51 56 48 54 55 55 55 59 60 63 60 53 45 44 43 42 44 43
32 33 29 25 26 27 29 32 34 31 32 32 29 29 27 25 27 36 39 44 47 38 46 51 48 45 51 55 57 57 55 50 47 48 41 33 38 46
32 36 35 34 31 28 29 30 30 32 31 32 34 31 29 28 25 25 27 31 42 50 49 38 48 52 60 58 60 60 60 57 55 52 45 44 43 39
32 35 36 35 35 33 30 29 29 30 29 29 31 32 31 28 26 25 27 32 37 43 43 36 54 52 51 53 53 58 57 55 52 50 46 46 45 45
31 32 33 36 34 34 31 29 27 26 27 28 29 32 31 30 29 27 27 28 36 40 44 42 45 50 48 53 52 55 58 58 50 47 47 45 44 44
34 35 37 37 33 31 30 29 27 24 24 27 29 28 30 31 30 27 28 28 33 40 36 37 45 33 46 53 54 55 53 56 50 48 47 49 50 47
35 38 39 36 33 30 30 29 27 24 23 24 26 32 32 28 29 25 26 26 26 32 35 33 32 39 42 39 45 49 51 55 54 52 49 50 53 53
35 37 38 33 31 30 31 31 29 26 25 24 27 29 30 31 30 28 26 26 30 29 30 31 31 31 35 44 45 47 52 53 49 50 49 47 50 50
34 33 33 33 33 32 31 30 30 29 27 27 27 28 30 30 29 29 27 27 29 30 29 27 28 26 27 32 39 43 42 39 38 41 44 44 45 44
33 34 34 33 33 34 33 32 31 30 29 29 28 26 27 27 28 29 28 27 29 30 32 29 25 24 24 29 34 36 30 31 32 34 37 35 35 37
33 33 34 33 33 33 34 34 34 33 32 31 30 28 26 26 28 28 28 28 29 28 31 31 27 24 26 28 31 35 30 30 29 30 32 40 27 30
34 35 35 36 36 36 35 35 35 34 33 33 32 30 30 28 28 28 28 28 29 31 31 31 27 26 24 24 28 28 27 26 25 25 28 39 30 23
36 38 38 39 36 35 36 36 36 36 36 36 35 33 31 31 30 30 29 30 28 30 32 32 27 25 27 23 23 23 24 23 21 20 23 33 28 29